Location: Escondido Hill
(38.9119°N, 104.7815°W)
Time: 09:01:28
(UTC-06:00)

Tiangong 2 - Visible Passes

Search period start: 20 June 2018 00:00
Search period end: 30 June 2018 00:00
Orbit: 291 x 297 km, 42.8° (Epoch: 20 June)

Date Brightness Start Highest point End Pass type
(mag) Time Alt. Az. Time Alt. Az. Time Alt. Az.
26 Jun 2.6 04:15:39 16° SSE 04:16:18 17° SSE 04:18:04 10° ESE visible
27 Jun 1.5 04:20:50 24° SSW 04:21:46 34° SSE 04:24:07 10° E visible
28 Jun 0.4 04:25:53 24° WSW 04:27:13 71° SSE 04:29:45 10° ENE visible
29 Jun 0.8 04:30:49 17° W 04:32:37 62° NNW 04:35:09 10° ENE visible
